Regional Weather Roundup
Issued by NWS

Home | Current Version | Previous Version | Text Only | Print | Product List | Glossary On
Versions: 1 2 3 4 5 6 7 8 9 10 11 12 13 14 15 16 17 18 19 20 21 22 23 24 25 26 27 28 29 30 31 32 33 34 35 36 37 38 39 40 41 42 43 44 45 46 47 48 49 50
000
ASUS43 KMPX 260710
RWRMN
WEATHER ROUNDUP FOR MINNESOTA
NATIONAL WEATHER SERVICE TWIN CITIES/CHANHASSEN MN
100 AM CST WED NOV 26 2014


NOTE: "FAIR" INDICATES FEW OR NO CLOUDS BELOW 12,000 FEET WITH NO
SIGNIFICANT WEATHER AND/OR OBSTRUCTIONS TO VISIBILITY. N/A MEANS
CURRENT SKY AND/OR WEATHER CONDITIONS ARE NOT AVAILABLE.

MNZ060>063-068>070-260800-
   Twin Cities Metro

CITY           SKY/WX    TMP DP  RH WIND       PRES   REMARKS
TWIN CITIES    CLOUDY    24  16  71 E10       30.03S WCI  14
ST PAUL        CLOUDY    25  16  68 SE9       30.05S WCI  15
CRYSTAL        CLOUDY    26  16  65 SE7       30.01S WCI  18
BLAINE         CLOUDY    27  19  74 SE6       30.02S WCI  20
LAKEVILLE      CLOUDY    21  18  86 SE7       30.01F WCI  13
EDEN PRAIRIE   CLOUDY    25  16  68 E8        30.00F WCI  16
SOUTH ST PAUL  CLOUDY    25  17  69 CALM      30.04S
LAKE ELMO      CLOUDY    27  18  69 SE3       30.04S
$$
MNZ001>005-007-008-013>017-022>024-027-028-260800-
   Northwest Minnesota

CITY           SKY/WX    TMP DP  RH WIND       PRES   REMARKS
BEMIDJI        LGT SNOW  18  15  86 N5        30.05R WCI  11
HALLOCK        CLOUDY     7   0  72 N13       30.21R WCI  -9
ROSEAU         CLOUDY    10   3  72 N13       30.16R WCI  -5
WARROAD        FLURRIES  10   7  85 N12       30.15R WCI  -4
THIEF RVR FALL MOCLDY    14   9  79 N13       30.13R WCI   0
CROOKSTON      LGT SNOW  14  10  85 N16       30.16R WCI  -2
FOSSTON        LGT SNOW  16  12  86 N15       30.08R WCI   1
DETROIT LAKES  FLURRIES  19  18  93 NE5       30.03R WCI  13
MOORHEAD       DRIZZLE   19  19 100 N20       30.08R WCI   4
PARK RAPIDS    FLURRIES  17  12  80 E3        30.01S
MAHNOMEN       LGT SNOW  19  16  89 N14       30.06R WCI   6
$$
MNZ006-009>011-018-025>026-260800-
   North Central Minnesota

CITY           SKY/WX    TMP DP  RH WIND       PRES   REMARKS
BAUDETTE       LGT SNOW  13   8  81 N9        30.11R WCI   1
FLAG ISLAND    CLOUDY     9   5  85 N15       30.15R WCI  -8
INTL FALLS     LGT SNOW  15  10  80 N7        30.09R VSB 1   WCI   5
WASKISH        LGT SNOW  16  12  86 CALM      30.09R
BIG FORK       FLURRIES  18  10  73 CALM      30.06R
LONGVILLE      CLOUDY    18  10  73 CALM      30.03F
GRAND RAPIDS   CLOUDY    18   9  68 CALM      30.03F
CRANE LAKE     CLOUDY    10   9  92 CALM      30.10R
ORR            CLOUDY    16   9  73 CALM      30.04R
COOK           CLOUDY    16  10  79 CALM      30.06R
WALKER         CLOUDY    18   8  65 CALM      30.03S
$$
MNZ012-019>021-037-260800-
   Northeast Minnesota

CITY           SKY/WX    TMP DP  RH WIND       PRES   REMARKS
DULUTH         CLOUDY    19  11  70 W3        30.04S
ELY            CLOUDY     7   3  85 CALM      30.04S
HIBBING        CLOUDY    19   8  62 S3        30.04S
EVELETH        CLOUDY    21  10  63 CALM      30.05S
DULUTH HARBOR  CLOUDY    21  16  79 CALM      30.11R
TWO HARBORS    CLOUDY    19  10  68 NW3       30.05R
SILVER BAY     PTCLDY     9   5  85 CALM      30.05S
GRAND MARAIS     N/A     19   5  54 N7        30.10R WCI  10
G MARAIS ARPRT MOCLDY     3   0  85 CALM      30.02R
$$
MNZ029>031-032-039>041-046>048-054>057-064-260800-
   West Central Minnesota

CITY           SKY/WX    TMP DP  RH WIND       PRES   REMARKS
FERGUS FALLS   CLOUDY    19  12  73 NE7       30.04R HAZE    WCI  10
WHEATON        CLOUDY    21  16  79 N10       30.01R WCI  10
MORRIS         MOCLDY    25  18  74 E12       29.95R WCI  14
ALEXANDRIA     CLOUDY    20  13  74 NE9       29.98R WCI   9
ELBOW LAKE       N/A     22  14  72 NE10      29.98R WCI  11
WADENA         CLOUDY    18  10  73 NE7       30.01R WCI   8
GLENWOOD       MOCLDY    21  18  86 NE12      29.97R WCI   9
APPLETON       CLOUDY    27  19  74 E10       29.93R WCI  17
BENSON         CLOUDY    25  18  74 E8        29.95R WCI  16
ORTONVILLE     FLURRIES  25  19  80 NE9       29.93R WCI  15
MADISON        LGT SNOW  30  28  93 SE7       29.91R WCI  23
WILLMAR        CLOUDY    27  19  74 E14       29.95S WCI  15
$$
MNZ033>034-036-042>043-049>051-058-059-260800-
   Central Minnesota

CITY           SKY/WX    TMP DP  RH WIND       PRES   REMARKS
ST CLOUD       CLOUDY    24  15  68 E7        30.00F WCI  16
SAUK CENTRE    CLOUDY    21  14  76 NE8       29.98R WCI  11
PAYNESVILLE    CLOUDY    21  15  76 NE7       29.97S WCI  13
AITKIN         CLOUDY    21  12  68 NE3       30.03S
PINE RIVER     CLOUDY    18  10  73 NE5       30.06S WCI  11
BRAINERD       CLOUDY    18  12  77 NE7       30.03S WCI   9
STAPLES        CLOUDY    18  10  73 NE3       30.01S
LONG PRAIRIE   CLOUDY    19  14  79 NE7       30.00R WCI  10
LITTLE FALLS   CLOUDY    21  14  73 NE3       30.02R
LITCHFIELD     MOCLDY    25  19  80 E8        29.97S WCI  16
BUFFALO        MOCLDY    25  17  72 E6        30.01S WCI  18
MAPLE LAKE     MOCLDY    23  18  81 NE7       30.00S WCI  15
$$
MNZ037-044-045-052-053-260800-
   East Central Minnesota

CITY           SKY/WX    TMP DP  RH WIND       PRES   REMARKS
PRINCETON      CLOUDY    25  18  74 CALM      30.02S
MORA           CLOUDY    19  14  79 E3        30.06S
CAMBRIDGE      CLOUDY    25  16  68 CALM      30.02S
RUSH CITY      CLOUDY    22  18  83 NE5       30.05S WCI  16
MOOSE LAKE     CLOUDY    19  14  79 CALM      30.05R
HINCKLEY       CLOUDY    21  18  86 CALM      30.06S
CLOQUET        CLOUDY    19  12  73 CALM      30.05R
MCGREGOR       CLOUDY    19  14  79 NE3       30.04F
$$
MNZ071>073-080-081-089-090-097-098-260800-
   Southwest Minnesota

CITY           SKY/WX    TMP DP  RH WIND       PRES   REMARKS
MONTEVIDEO     CLOUDY    25  23  93 S9        29.92S WCI  15
GRANITE FALLS  CLOUDY    27  24  91 E10       29.92S WCI  17
CANBY          LGT SNOW  28  28  96 E7        29.89R WCI  21
MARSHALL       CLOUDY    27  25  93 SE9       29.88S WCI  17
REDWOOD FALLS  LGT SNOW  26  23  88 SE9       29.92F FOG     WCI  17
OLIVIA         MOCLDY    28  21  74 SE9       29.92S WCI  20
PIPESTONE      LGT SNOW  28  27  93 SE10      29.81S WCI  19
WINDOM         LGT SNOW  27  25  93 SE10      29.88F WCI  17
WORTHINGTON    CLOUDY    27  25  93 SE12      29.85S WCI  16
JACKSON        FLURRIES  28  23  80 SE13      29.88F WCI  18
TRACY          LGT SNOW  28  26  93 SE9       29.87F WCI  19
SLAYTON        LGT SNOW  26  26  99 SE12      29.85S WCI  16
$$
MNZ065>067-074>077-082>085-091>093-260800-
   South Central Minnesota

CITY           SKY/WX    TMP DP  RH WIND       PRES   REMARKS
MANKATO        CLOUDY    25  16  68 SE13      29.96S WCI  13
NEW ULM        FLURRIES  25  18  74 SE8       29.94F WCI  16
ST JAMES       CLOUDY    27  21  80 E9        29.94S WCI  17
FAIRMONT       CLOUDY    27  18  69 SE13      29.91F WCI  16
GLENCOE        CLOUDY    26  21  82 E8        29.97S WCI  17
FARIBAULT      CLOUDY    25  18  74 SE7       29.99F WCI  17
OWATONNA       CLOUDY    25  16  68 SE13      29.98S WCI  13
WASECA         CLOUDY    25  16  68 SE12      29.99S WCI  14
ALBERT LEA     CLOUDY    25  19  80 SE13      29.97F WCI  13
$$
MNZ078>079-086>088-094>096-260800-
   Southeast Minnesota

CITY           SKY/WX    TMP DP  RH WIND       PRES   REMARKS
ROCHESTER      CLOUDY    19  14  81 SE10      30.01F WCI   7
RED WING       CLOUDY    25  14  63 SE8       30.04F WCI  16
STANTON        CLOUDY    25  17  70 SE3       30.00F
DODGE CENTER   CLOUDY    19  16  86 SE8       29.99F WCI   9
WINONA         CLOUDY    23  18  80 SE5       30.10F WCI  17
AUSTIN         CLOUDY    23  18  80 SE9       30.00S WCI  13
PRESTON        CLOUDY    16  12  86 SE6       30.04S WCI   7
$$
ABBREVIATIONS USED IN REMARKS
   TC - TEMPERATURES IN CELSIUS
  WCI - WIND CHILL INDEX
   HX - HEAT INDEX
  VSB - VISIBILITY
$$


USA.gov is the U.S. government's official web portal to all federal, state and local government web resources and services.